Lapse_Rate
8.9 9.1 9.1 9.3 9.4 9.3 9.2 9.2 9.3 9.3 9.5 9.5 9.3 9.3 9.3 8.9 8.7 8.8 8.6 8.7 7.9 7.3 7.8 8.2 8.2 7.1 7.1 6.9 6.5 6.6 6.6 6.5 6.5 6.5 6.5 6.5 6.5 6.5 6.5 6.5 6.5 6.5 6.5 6.5 6.5 6.5 6.5 6.7 6.6 6.5 6.6 6.9 7.0 7.1
9.1 9.2 9.2 9.3 9.1 9.1 9.1 9.2 9.2 9.3 9.3 9.3 9.3 9.0 9.0 8.8 9.3 9.1 8.2 9.4 9.2 6.8 7.4 8.6 8.4 9.1 8.1 7.4 6.8 6.8 6.6 6.5 6.6 6.5 6.5 6.5 6.5 6.5 6.5 6.5 6.5 6.5 6.5 6.5 6.5 6.5 6.6 7.1 6.8 7.4 7.4 7.1 7.2 7.3
9.3 9.3 9.3 9.1 8.7 9.2 9.3 9.1 9.2 8.9 9.3 9.2 8.7 8.8 9.3 9.5 9.6 9.4 8.5 8.7 8.3 7.1 7.6 7.9 7.6 8.1 6.3 5.9 4.8 6.8 6.9 5.6 6.5 7.3 6.6 6.5 6.5 6.5 6.5 6.5 6.5 6.5 6.5 6.5 6.5 6.5 6.5 7.0 7.4 7.6 7.6 7.5 7.7 7.3
9.2 9.2 9.2 9.2 9.3 9.3 9.2 8.9 8.5 9.3 9.4 9.5 9.5 9.5 9.5 9.5 9.4 9.1 8.2 8.4 8.1 7.0 6.6 7.1 8.1 6.3 5.8 5.3 5.3 5.4 6.0 6.1 5.7 6.3 6.5 6.5 6.5 6.5 6.5 6.5 6.5 6.5 6.5 6.5 6.5 6.5 6.8 7.1 7.3 7.6 7.7 7.9 7.9 8.1
9.3 9.2 9.1 9.1 9.1 8.7 8.7 8.6 8.5 9.3 9.4 9.3 9.4 9.4 9.4 9.2 8.8 8.9 8.5 8.5 8.4 7.2 6.6 7.1 8.0 8.1 6.4 6.0 5.8 5.7 5.6 6.1 6.0 6.3 6.5 6.5 6.5 6.6 6.5 6.5 6.5 6.6 6.5 6.5 6.5 6.7 6.6 6.8 7.6 7.9 7.7 7.7 7.9 7.8
9.3 9.3 9.3 8.6 8.6 9.2 8.8 8.5 8.6 9.3 9.2 9.3 9.3 9.4 8.7 8.8 8.9 8.5 7.9 5.5 5.1 5.2 6.6 6.5 7.6 6.3 6.2 5.7 5.8 5.5 5.5 5.9 6.5 6.8 6.5 6.8 6.7 6.8 6.5 6.5 6.5 6.9 7.1 7.1 6.6 7.3 7.5 7.6 7.8 7.9 7.6 7.4 6.6 6.2
8.8 9.1 9.3 9.3 9.2 8.6 8.5 9.0 9.4 9.4 9.3 9.3 9.1 9.3 9.3 9.3 9.0 7.9 7.8 6.8 5.7 5.5 7.1 6.5 6.5 7.0 5.8 6.0 6.5 6.7 6.4 6.8 7.0 6.9 6.6 6.6 6.7 6.7 6.5 6.5 6.6 6.8 6.7 7.6 7.3 7.8 7.0 7.4 7.4 7.8 7.2 6.7 6.5 6.9
8.0 8.1 9.2 8.6 8.5 8.6 9.4 9.3 9.3 9.3 9.2 9.1 8.5 8.5 8.1 7.5 7.4 7.3 6.9 6.4 4.9 6.5 7.1 6.5 6.5 6.8 6.0 6.9 6.7 6.7 7.0 7.0 7.0 6.8 6.9 6.5 6.7 6.6 6.5 6.5 7.0 6.9 7.3 7.8 7.6 7.7 7.7 8.0 7.5 7.3 7.1 6.2 5.6 5.8
8.1 8.2 8.2 8.5 9.1 9.2 9.2 9.2 9.1 8.9 8.7 8.2 7.3 6.7 7.2 7.3 7.0 7.2 6.7 6.5 4.6 6.3 6.7 6.6 6.5 6.5 6.4 7.0 7.0 6.9 7.0 6.5 7.2 6.5 6.5 6.7 6.5 6.5 6.5 6.7 6.9 7.1 7.2 7.1 7.0 7.8 8.0 7.4 8.1 7.8 7.1 6.5 6.1 6.6
8.2 8.3 8.3 8.7 8.6 8.9 9.2 9.2 9.2 9.4 8.2 7.0 6.9 6.6 7.5 7.2 7.3 6.6 6.8 7.0 7.0 7.1 7.2 6.5 7.1 6.5 6.7 6.8 6.6 6.6 6.8 6.5 6.5 6.5 7.0 6.5 6.5 6.9 7.1 6.9 7.1 7.1 7.0 8.1 7.6 7.2 7.8 7.5 7.5 7.5 7.0 6.8 6.2 5.9
8.5 8.2 8.2 9.1 9.2 9.2 9.2 9.3 9.3 9.4 8.0 8.4 7.3 7.6 7.0 6.9 6.7 7.0 6.8 6.7 6.8 6.5 7.1 7.0 6.9 6.5 6.6 6.5 6.5 7.0 6.5 6.5 6.5 6.5 6.5 6.5 6.5 6.6 7.7 7.9 7.6 7.0 7.4 8.4 8.1 8.1 7.8 6.9 6.3 5.9 5.8 5.8 6.0 6.1
8.3 8.2 8.3 8.7 9.1 9.2 9.1 8.3 8.4 8.3 7.3 8.1 7.5 6.9 6.8 7.4 7.2 6.6 6.5 6.6 6.5 6.5 6.9 6.5 6.8 7.0 7.2 7.5 6.6 6.7 6.5 6.5 6.5 6.7 6.5 6.5 6.5 7.2 7.5 7.6 7.8 7.8 7.5 7.5 6.9 6.4 6.4 6.2 6.2 5.9 6.0 6.0 5.8 5.6
7.9 7.7 7.7 8.1 8.8 9.1 7.5 7.0 6.6 6.7 5.7 6.2 6.5 7.1 7.1 6.9 6.5 6.5 6.5 6.5 6.5 6.7 6.9 6.9 6.6 7.1 7.3 7.3 6.5 6.5 6.5 6.5 6.7 6.5 6.5 6.5 6.9 7.4 7.4 7.5 7.4 6.5 5.6 5.5 5.6 5.7 5.6 5.5 5.9 5.9 5.6 5.7 5.7 5.7
7.5 7.5 7.3 7.6 7.1 7.0 6.4 5.8 5.5 5.3 6.4 5.6 6.9 6.5 6.5 6.5 6.5 6.5 6.5 6.5 7.0 7.1 7.0 7.2 6.8 6.5 7.1 6.5 6.5 6.5 6.5 6.5 6.5 6.5 6.5 6.5 7.1 7.5 7.5 6.7 5.4 5.8 5.7 5.6 5.6 5.7 5.6 5.5 5.1 5.1 5.1 5.2 5.4 5.7
7.2 6.9 6.8 6.9 6.8 6.4 5.7 4.8 4.6 4.7 6.3 7.0 7.0 6.5 6.5 6.9 7.0 7.0 7.1 7.1 7.3 7.5 7.4 7.0 6.9 6.9 6.5 6.5 6.5 6.5 6.5 6.5 6.5 6.5 6.5 7.1 7.5 7.0 6.2 5.9 5.6 5.7 5.6 5.5 5.5 5.2 5.2 5.4 5.5 5.2 4.8 4.9 5.2 5.5
7.0 6.5 6.7 6.4 6.5 5.8 4.4 3.2 3.9 5.5 6.1 7.4 7.2 6.6 7.1 6.7 6.6 7.1 7.2 7.1 7.9 7.6 7.5 7.3 6.5 6.5 6.5 6.5 6.5 6.5 6.5 6.5 6.5 6.5 7.2 7.5 6.8 6.3 5.8 5.5 5.4 5.4 5.3 5.0 4.9 5.0 4.9 4.7 4.7 4.7 5.1 5.1 5.3 5.5
7.1 7.2 6.7 6.4 5.7 4.7 3.2 3.1 4.2 5.2 6.5 7.1 6.8 7.3 7.1 7.0 6.9 7.3 7.6 7.6 8.1 7.3 6.5 6.5 6.5 6.5 6.5 6.5 6.5 6.5 6.5 6.5 7.0 7.3 7.8 7.7 7.0 6.2 5.6 5.1 5.1 5.1 4.7 4.5 4.5 4.4 4.6 4.9 5.2 5.7 6.1 5.9 5.8 6.2
7.2 6.8 6.6 5.9 5.0 4.2 2.8 2.4 4.0 5.3 6.8 7.1 6.8 7.1 7.4 7.6 7.4 7.6 7.9 8.3 7.4 7.2 7.0 6.6 6.9 6.5 6.5 6.5 6.5 6.5 7.0 7.5 7.8 7.7 7.5 6.7 6.1 5.8 5.5 4.7 4.5 4.5 4.3 4.2 4.5 4.9 5.1 5.6 6.7 7.2 6.4 6.3 6.3 7.1
7.1 6.5 6.0 4.8 3.9 3.0 3.5 3.9 4.4 6.5 6.5 6.8 7.2 7.2 7.7 8.0 8.3 8.5 8.1 7.7 8.2 7.7 7.4 7.0 6.5 6.5 6.5 6.8 6.8 7.1 7.4 7.6 7.5 7.2 5.8 5.2 4.9 4.8 4.6 4.5 4.7 4.6 4.4 4.5 5.2 5.7 5.9 5.7 5.7 5.8 6.4 6.7 7.4 8.4
6.0 5.6 4.9 3.7 3.4 3.7 4.7 4.7 5.1 6.3 6.8 6.4 6.2 4.7 6.9 7.5 8.2 8.1 7.4 7.4 7.3 7.1 6.7 6.5 6.5 7.0 7.1 7.5 7.6 7.8 8.0 8.1 7.9 7.5 7.4 6.4 6.0 5.0 4.3 4.6 4.8 5.0 5.5 5.5 5.7 6.2 6.5 6.5 7.1 7.0 7.3 8.3 8.2 8.1
5.0 4.7 3.3 3.0 0.7 1.2 2.1 2.9 5.5 4.3 4.8 6.2 4.3 4.1 6.3 6.3 7.0 7.2 7.1 7.2 6.9 7.0 6.7 7.3 7.4 7.9 7.7 6.2 5.9 6.7 6.0 6.9 6.7 7.9 7.7 6.9 6.0 5.6 5.3 5.1 5.1 5.3 5.4 5.5 5.5 6.0 6.9 8.0 7.8 7.6 7.6 7.3 7.4 7.1
4.5 3.6 2.5 2.2 2.3 2.4 2.3 1.3 3.4 3.4 5.2 4.4 5.4 5.1 6.3 6.8 6.9 6.7 7.2 7.1 7.1 7.3 7.6 7.6 7.8 7.9 5.7 4.1 3.9 3.6 4.8 5.3 5.5 5.7 5.7 6.1 5.4 5.0 4.9 5.0 5.1 4.4 5.0 5.5 6.5 7.5 8.1 7.9 8.3 8.4 7.6 7.0 7.3 6.5
3.3 3.0 2.1 2.6 3.5 4.0 4.5 2.1 5.5 3.3 6.5 6.5 6.3 6.6 6.7 6.8 6.0 6.3 6.9 7.3 7.5 7.6 6.9 7.1 7.7 6.2 5.6 5.4 4.7 3.4 3.1 4.4 4.3 4.4 5.0 5.2 5.3 5.3 5.5 5.6 5.5 5.0 5.6 6.9 7.3 7.6 7.0 7.6 6.9 7.6 6.9 6.3 6.1 6.0
0.9 -0.3 1.0 2.5 4.1 5.7 4.6 4.6 5.1 6.4 6.5 6.6 6.5 6.5 6.6 6.7 5.0 7.0 6.5 7.0 7.6 7.0 6.0 5.6 6.0 6.4 6.0 4.7 3.9 3.0 2.4 3.7 4.7 4.4 3.9 5.1 5.3 5.1 5.4 5.8 6.2 6.5 6.4 7.0 6.4 6.3 6.6 6.6 7.1 6.4 6.2 5.9 5.7 5.6
3.3 4.1 3.9 5.5 5.1 5.9 6.5 6.5 6.5 6.6 6.5 6.5 6.5 6.5 6.6 6.1 6.5 6.5 6.5 7.0 7.5 6.5 5.3 5.1 5.3 5.2 5.0 5.6 4.8 3.7 2.6 2.2 2.9 4.1 3.9 4.2 4.9 5.4 5.2 5.6 5.9 6.2 6.3 5.6 5.7 5.9 6.4 6.6 6.5 6.3 6.1 5.8 5.8 6.0
6.5 4.8 6.2 6.6 6.6 6.5 6.5 6.5 6.5 6.5 6.5 6.5 6.5 6.9 6.7 6.6 6.5 6.5 6.6 7.1 6.8 6.2 4.6 3.8 3.5 4.1 5.1 4.3 4.1 3.3 2.5 2.2 2.3 4.5 4.3 4.0 4.3 4.5 4.5 4.6 4.8 5.6 6.7 5.5 5.9 6.3 6.2 6.4 6.3 6.1 5.9 6.0 6.5 6.1
6.5 6.3 6.9 6.8 7.0 6.9 6.8 7.0 6.9 6.7 6.5 6.5 6.5 6.6 6.5 6.5 6.5 6.8 7.4 5.6 5.4 4.7 3.4 2.8 2.6 3.0 3.4 3.7 3.7 2.7 2.0 2.0 1.5 2.7 3.1 3.6 4.4 5.2 5.1 5.2 4.9 5.2 4.7 5.6 5.7 6.1 6.4 6.2 6.1 6.0 5.9 5.9 5.8 5.5
5.7 5.7 6.5 5.6 5.9 5.8 6.4 6.5 6.5 6.5 6.5 7.2 7.0 6.5 6.5 6.5 6.5 7.1 5.9 4.8 3.6 2.5 2.2 1.9 1.6 0.8 0.8 1.6 1.2 0.7 1.9 2.1 2.6 2.8 3.3 4.9 5.5 5.5 5.0 5.1 4.7 5.8 5.0 4.9 5.8 5.8 5.9 5.9 5.8 5.9 5.9 5.6 5.6 5.6
6.2 5.8 5.8 4.2 4.8 5.9 6.3 6.7 6.7 7.3 7.0 7.3 6.6 6.5 6.8 7.0 5.6 5.1 4.8 4.0 3.0 2.6 2.7 2.3 2.3 0.4 1.6 1.3 0.6 1.6 1.5 1.1 0.9 1.4 2.5 3.6 3.9 4.6 4.6 3.6 3.4 3.0 4.2 4.0 4.9 5.5 5.6 6.1 6.2 5.4 5.1 4.8 4.8 4.5
6.7 5.7 6.4 5.3 5.8 6.5 6.6 5.7 6.4 5.9 5.5 4.9 6.2 6.3 6.4 5.9 5.1 4.2 4.0 3.7 3.3 2.7 1.9 1.3 0.8 0.6 1.2 1.4 1.6 1.8 1.4 1.1 1.1 1.0 1.6 2.6 3.2 3.1 2.8 3.1 3.2 4.2 3.6 3.4 3.4 3.6 4.7 4.7 4.1 3.7 3.5 3.5 3.7 3.6
6.2 6.2 6.3 6.5 6.6 6.0 5.1 4.3 4.7 4.3 3.7 3.9 2.9 4.9 5.6 5.1 5.0 4.3 3.4 2.9 2.7 2.8 3.3 2.5 2.3 1.3 1.3 1.5 1.0 0.9 2.0 1.4 0.6 1.0 1.3 2.2 2.7 2.9 3.0 4.8 4.5 3.4 3.0 3.0 3.1 3.3 3.5 3.4 3.3 3.0 3.0 2.8 2.7 3.4
6.2 6.1 6.8 6.5 6.5 4.6 4.4 4.9 4.8 4.7 4.1 4.6 4.4 3.3 3.8 5.0 5.3 4.9 3.8 3.4 3.7 3.7 3.6 2.4 1.8 1.8 1.4 0.6 -0.2 -0.5 1.6 0.9 -0.1 -0.3 -0.9 -0.3 2.6 5.4 6.9 4.1 3.3 2.9 2.7 2.5 2.7 3.2 3.2 3.1 2.8 2.7 2.4 2.2 2.2 2.4
5.6 5.9 6.0 6.1 6.3 6.0 4.8 4.9 4.8 5.2 4.9 5.4 5.2 4.6 4.6 5.3 4.9 5.0 3.2 2.4 3.1 2.9 2.5 1.9 1.4 0.8 0.1 -0.9 -0.6 -0.2 1.0 -0.5 -1.1 2.3 2.8 4.1 5.7 6.7 6.1 3.3 2.6 2.4 2.2 2.2 2.5 2.4 2.7 2.5 2.5 2.1 1.9 1.7 1.7 1.8
Wind_Speed
27 28 27 29 29 30 29 30 27 27 26 26 26 24 21 21 21 12 9 10 7 9 15 24 23 16 13 10 10 13 11 4 5 8 10 7 5 8 7 12 9 8 9 8 9 5 6 8 4 4 4 7 11 14
28 28 29 28 29 29 28 28 28 27 27 28 26 22 20 19 20 18 9 9 7 6 11 21 23 23 19 22 15 6 7 16 2 4 2 4 4 4 9 8 1 4 1 6 3 3 5 5 5 7 3 12 14 16
29 29 29 30 29 28 27 27 28 27 24 22 22 19 18 20 21 18 9 8 6 5 10 10 10 9 4 6 4 4 4 3 6 4 2 2 5 0 5 4 5 2 3 4 6 4 7 8 9 11 11 15 16 17
30 30 31 31 29 27 27 27 26 26 23 23 23 22 22 23 22 23 8 7 5 4 6 15 3 5 6 8 10 9 11 7 6 5 1 2 4 3 3 4 3 3 3 6 6 8 11 9 10 14 17 18 20 19
29 29 28 27 27 27 27 27 26 25 23 25 25 24 24 25 24 18 7 7 6 5 6 9 13 10 5 8 11 11 11 8 2 2 3 3 2 2 1 3 4 5 3 0 3 11 10 13 14 17 21 20 19 20
29 28 27 28 28 27 27 28 24 24 25 25 26 26 25 23 19 5 4 1 1 0 3 4 1 2 3 5 4 4 2 2 2 2 3 3 3 3 3 3 5 5 3 6 7 12 17 18 17 17 20 19 18 18
26 26 27 27 28 29 28 24 25 25 26 26 27 26 24 23 9 5 4 1 7 2 3 4 3 1 3 3 2 2 4 3 2 2 3 3 5 5 3 3 6 5 9 14 19 26 20 16 16 18 19 19 19 16
22 21 23 27 29 27 25 26 26 27 26 25 27 28 21 14 7 4 1 4 3 2 3 3 3 2 5 3 2 3 2 2 6 3 3 4 3 4 5 7 9 11 15 16 14 17 20 19 18 16 15 15 15 13
21 21 24 25 25 26 27 27 28 26 24 28 26 14 2 0 1 1 7 10 4 2 3 2 4 3 6 2 2 2 2 4 4 5 4 3 5 7 8 10 9 8 10 18 19 19 20 20 15 13 13 12 13 11
23 22 21 24 26 28 29 30 29 27 26 21 4 2 2 1 14 10 3 2 3 2 2 2 2 2 4 3 3 2 3 3 3 5 3 5 5 7 11 8 9 14 17 20 23 19 16 14 12 13 12 10 10 9
24 22 22 25 28 33 33 31 27 28 10 4 4 2 3 10 2 1 1 2 1 1 2 2 3 2 5 4 3 4 2 3 3 4 3 3 4 8 9 9 11 13 15 14 15 14 12 12 11 11 10 10 9 8
26 24 24 27 30 37 35 30 27 10 2 5 6 3 2 3 2 3 3 3 3 4 4 3 3 3 1 2 1 3 3 3 5 3 3 3 4 9 8 11 11 13 15 15 15 14 13 12 10 10 9 8 7 6
29 29 28 26 32 39 36 29 24 16 3 0 0 1 3 4 5 6 7 2 4 6 5 4 3 3 0 2 4 2 5 5 1 3 3 3 3 6 7 10 13 14 15 15 14 12 12 12 10 8 8 6 5 4
32 32 29 22 35 38 34 28 19 7 2 3 5 6 5 4 5 2 4 4 2 3 5 5 2 3 3 4 3 5 3 1 3 4 4 3 5 7 8 8 12 12 13 13 12 10 10 9 8 7 6 5 3 3
32 34 22 24 37 38 29 24 14 5 3 5 4 6 5 5 4 5 5 4 5 6 4 2 0 2 4 5 4 3 4 5 5 3 3 4 6 7 9 9 9 10 9 9 8 8 8 7 6 6 5 4 3 2
34 19 8 35 36 33 23 11 5 3 3 4 6 5 8 5 8 9 8 7 6 6 2 1 2 3 7 3 5 6 3 5 3 4 5 6 8 9 9 9 9 9 9 8 7 7 6 7 6 4 3 3 3 3
20 4 27 31 34 20 18 4 4 5 4 5 4 4 7 3 8 8 8 8 7 3 3 3 6 5 2 4 4 5 4 6 7 6 6 9 10 9 9 9 8 8 8 7 7 6 5 4 3 2 3 3 4 3
7 18 23 29 23 6 3 6 3 4 6 4 4 8 8 7 9 8 8 8 5 3 2 3 2 6 5 4 5 5 6 7 7 7 7 8 9 9 8 8 8 7 6 6 4 3 3 3 2 2 2 2 3 2
15 13 23 20 9 3 3 5 4 3 2 3 5 7 5 8 9 9 9 10 5 4 3 4 7 5 5 5 7 7 5 5 7 6 7 9 9 8 8 7 6 6 5 5 4 3 3 4 4 4 4 4 4 4
12 10 24 15 9 3 4 3 3 3 4 4 4 6 4 5 8 9 12 12 9 4 9 6 6 6 5 7 6 6 6 5 6 6 6 5 5 6 7 5 4 4 3 4 3 6 4 4 4 4 4 5 5 5
10 10 13 9 4 5 4 3 3 2 3 3 4 5 4 3 9 10 9 9 7 5 6 7 7 7 8 7 7 6 8 6 5 4 4 4 4 4 4 4 5 4 4 4 5 5 6 5 5 5 4 5 5 5
4 13 3 5 4 3 4 3 2 3 2 2 3 5 4 4 5 5 5 7 5 5 5 6 7 7 8 11 8 9 8 8 8 7 8 6 5 5 5 5 5 5 4 4 5 5 5 5 5 5 4 5 6 5
7 5 3 5 4 5 3 2 2 5 3 4 3 4 3 4 4 3 4 4 4 6 6 5 7 8 7 7 8 11 11 9 6 6 6 5 4 4 4 5 4 4 4 4 5 5 5 8 6 5 5 5 5 4
7 4 5 4 5 3 2 4 2 2 2 4 3 3 4 4 4 4 4 3 4 5 7 9 7 5 5 8 8 7 7 6 3 5 6 5 4 5 5 5 5 4 4 5 5 5 5 5 8 5 5 5 5 4
5 7 4 6 3 4 5 5 5 4 3 3 2 3 3 3 3 3 2 2 4 6 6 6 6 6 5 4 5 6 8 5 4 4 4 4 4 4 5 5 5 4 4 5 6 7 6 6 5 5 6 5 5 7
5 4 4 3 3 3 3 3 4 4 3 3 3 2 1 2 3 3 2 3 3 4 5 5 5 5 5 5 4 5 5 5 4 1 2 2 3 4 5 6 6 5 5 6 7 8 8 7 7 7 6 6 8 5
3 3 2 2 1 1 1 2 1 2 3 3 3 4 2 4 2 2 2 2 2 3 4 3 3 3 3 3 3 4 4 4 3 3 4 3 2 2 3 5 7 7 8 8 8 8 8 8 7 7 6 6 5 4
2 3 2 3 2 2 2 2 2 2 2 2 1 4 2 2 2 2 2 3 3 3 3 1 1 2 3 2 3 4 4 6 5 2 2 2 1 2 3 5 5 15 9 8 8 7 6 7 8 9 7 6 5 3
2 1 0 3 1 3 3 2 1 2 3 2 1 2 2 2 1 2 2 3 3 3 3 3 2 3 2 2 2 1 2 5 7 6 7 5 4 3 6 7 7 7 6 7 14 12 11 8 7 6 6 5 4 3
2 2 1 2 2 2 2 1 2 1 2 2 1 2 2 1 1 1 2 2 3 3 3 3 3 3 3 4 4 4 1 2 3 3 4 5 6 9 9 8 8 7 7 7 8 9 13 8 8 5 4 3 3 3
2 1 1 2 2 1 1 1 1 2 1 2 2 2 2 1 1 0 2 1 2 2 3 4 4 2 2 3 3 3 2 1 2 5 5 6 8 9 9 5 6 7 7 8 8 7 8 8 6 6 6 6 6 5
3 2 1 2 2 1 1 0 1 2 1 1 2 1 1 1 1 1 1 1 1 3 5 5 5 4 3 3 2 3 8 5 5 6 9 7 8 8 7 7 10 7 7 8 7 7 8 8 7 7 7 7 7 5
0 1 1 2 2 2 1 1 2 2 2 1 2 1 1 1 1 1 1 1 1 1 3 4 5 4 4 4 4 4 6 6 13 15 16 17 17 17 11 11 11 8 8 7 7 7 8 9 7 8 8 8 8 6
Wind_Direction
317 318 316 316 318 314 313 313 313 314 311 313 312 303 297 293 285 286 281 273 264 276 285 282 286 280 291 258 291 295 309 214 198 217 186 191 169 185 157 156 157 159 168 188 200 188 222 147 104 210 88 107 129 133
321 319 317 319 319 316 315 317 315 312 311 315 310 308 301 296 290 291 281 282 279 259 278 282 278 275 265 266 267 240 278 300 272 256 223 128 138 167 147 167 204 168 151 151 175 152 104 33 66 93 114 128 128 119
324 322 320 319 315 315 316 316 317 312 314 317 319 310 300 296 300 303 288 288 286 274 281 264 287 277 248 243 202 257 238 299 301 321 345 93 106 164 150 125 116 83 32 87 152 67 94 83 87 101 101 113 113 116
324 320 316 316 317 318 316 315 314 313 314 315 311 307 303 300 300 298 286 284 270 274 276 292 237 237 199 218 225 232 273 281 276 297 70 71 101 351 71 99 82 20 83 114 89 112 96 75 102 111 107 108 110 108
323 325 325 324 321 319 318 316 314 311 309 307 307 307 304 303 299 301 285 275 279 237 269 292 308 280 231 258 255 246 242 265 296 322 45 65 62 81 49 96 59 354 60 244 128 148 77 119 119 118 110 106 103 105
315 320 323 325 324 320 323 320 316 316 314 305 304 309 306 305 307 315 299 119 128 241 286 270 172 290 307 330 0 28 1 333 341 31 57 68 21 359 72 71 17 3 21 343 112 101 109 113 107 103 99 97 95 94
311 314 320 324 327 325 323 321 320 316 313 312 311 309 306 305 301 259 253 64 180 133 259 270 262 102 317 293 344 348 11 31 19 57 45 44 24 19 42 65 13 30 87 99 107 112 102 105 106 96 92 93 92 92
320 317 320 324 323 326 327 323 322 317 319 317 313 308 309 306 284 265 296 45 125 242 243 268 286 274 5 358 10 345 15 29 23 49 39 22 32 40 58 30 70 80 112 107 102 94 104 107 97 90 88 87 82 88
348 336 330 332 334 328 325 323 320 324 322 318 316 314 270 177 255 347 262 263 170 245 297 286 322 17 345 19 8 10 8 63 33 33 31 36 29 45 14 15 29 83 102 110 101 97 95 95 108 108 104 99 102 103
357 353 350 350 350 345 340 337 333 331 329 322 328 334 249 73 313 303 179 213 199 186 240 290 321 333 323 345 36 359 27 51 65 36 348 48 62 52 19 22 77 95 107 118 114 109 116 110 106 100 94 95 99 101
350 349 347 343 345 344 340 335 333 334 329 340 339 319 338 322 272 349 28 340 338 191 358 15 358 355 17 20 38 2 53 30 71 13 34 62 50 21 34 75 106 114 110 108 111 116 107 106 107 103 94 92 95 96
346 334 332 341 341 342 341 339 336 335 301 289 309 312 290 333 13 3 11 350 353 9 345 352 17 5 34 280 107 3 78 54 65 318 61 69 37 16 44 72 87 97 95 90 91 91 89 88 92 100 102 101 96 98
344 337 331 327 338 340 343 342 343 337 343 220 275 338 347 346 25 9 357 353 341 347 354 351 29 349 321 14 75 56 66 63 190 46 69 44 34 54 70 82 79 80 83 82 81 83 87 85 80 90 97 89 96 99
337 336 335 334 338 341 343 345 349 356 24 46 10 22 20 9 3 323 313 313 319 302 350 340 348 19 355 44 8 74 54 188 76 63 71 88 78 87 84 79 84 81 83 85 83 83 82 83 81 75 71 64 57 61
339 331 332 341 341 341 344 346 356 19 37 37 8 23 5 326 303 326 349 353 1 337 337 293 39 19 23 65 36 116 74 69 42 70 92 109 95 86 81 77 79 82 82 80 77 75 72 70 71 75 51 42 35 33
338 334 341 340 341 340 346 353 16 24 49 34 37 353 336 326 350 0 355 351 354 334 278 298 29 59 41 33 49 29 63 53 78 93 107 106 93 85 83 78 76 76 75 73 67 66 60 48 42 38 43 49 20 6
336 340 329 337 339 339 5 34 23 41 40 23 356 339 338 340 349 338 339 338 323 309 24 24 43 29 331 51 57 12 42 98 99 88 77 78 83 81 77 71 65 65 65 58 55 48 46 30 12 18 13 22 352 333
318 322 337 343 343 339 35 23 56 53 31 8 348 346 350 16 351 352 340 350 6 29 31 70 100 33 49 51 67 89 78 75 72 78 76 72 71 69 69 70 60 56 58 48 42 47 43 20 15 22 351 355 311 309
329 341 349 351 358 43 39 32 10 70 23 330 329 350 353 16 6 3 6 14 36 71 84 56 53 34 52 41 81 84 81 84 93 80 72 60 55 57 60 59 60 55 49 36 28 34 29 22 14 360 346 342 330 334
350 353 356 4 20 51 58 31 353 38 29 345 339 347 351 16 10 17 25 18 22 46 38 45 36 29 38 33 26 49 65 85 98 91 79 67 60 62 50 44 38 23 31 29 32 20 18 8 9 355 338 325 330 322
350 346 354 14 41 54 71 349 51 27 328 19 344 352 347 340 24 21 22 1 43 28 57 47 51 48 44 46 30 46 45 47 57 62 96 95 65 60 52 40 25 27 22 23 17 8 6 353 344 331 323 317 317 298
339 347 11 12 62 56 79 27 349 329 350 340 7 357 17 12 9 19 353 27 48 29 17 28 31 34 42 37 33 32 30 51 54 60 58 61 47 34 26 18 15 14 13 11 357 342 335 337 316 321 313 307 310 299
353 12 36 10 63 36 9 334 22 9 25 357 343 25 22 12 7 320 59 39 50 16 8 12 28 44 48 42 47 43 31 34 49 44 39 47 48 27 14 11 16 6 360 359 343 334 328 322 322 313 315 312 303 302
34 43 35 34 13 12 330 23 23 18 51 16 17 33 18 0 334 56 63 47 26 10 21 17 15 26 40 36 37 31 18 5 32 51 26 26 29 20 5 358 357 359 351 339 338 327 322 316 318 316 309 307 305 295
59 360 28 7 1 15 24 7 359 23 43 2 24 33 13 336 59 56 51 35 12 16 10 6 21 30 36 29 30 28 23 11 10 25 25 11 2 8 10 4 359 359 352 343 335 325 316 309 307 305 306 299 292 286
68 342 36 3 6 32 358 8 23 8 4 21 36 335 338 61 61 57 50 8 2 9 1 1 358 3 30 23 10 3 352 344 313 292 43 1 8 12 358 350 343 339 359 324 307 315 311 307 302 302 300 300 308 328
63 3 21 42 343 98 78 69 28 31 38 25 357 360 32 69 78 81 97 36 343 354 337 329 322 323 319 326 337 353 338 340 295 285 299 304 315 315 322 324 316 311 305 314 314 305 305 306 305 300 295 293 286 278
80 22 29 350 62 20 93 37 39 40 9 352 307 33 72 47 99 62 28 9 345 321 310 274 303 311 286 303 322 323 331 343 331 301 223 252 310 298 292 306 309 319 315 304 315 314 306 301 292 285 283 279 281 262
60 16 94 37 41 61 50 42 53 42 358 323 55 86 93 52 22 358 4 354 339 334 10 359 360 337 288 247 234 288 7 16 18 18 11 353 338 320 336 324 314 307 317 319 321 327 317 310 318 307 297 292 289 284
31 349 61 70 70 63 57 14 77 78 48 55 67 113 101 85 55 357 334 356 13 13 354 329 319 341 358 358 343 351 70 63 47 14 330 321 313 305 307 308 309 326 327 322 320 320 329 336 327 327 317 300 277 259
339 284 93 60 88 70 84 103 101 78 66 57 3 66 86 105 177 101 13 0 338 333 349 5 359 2 343 349 344 335 338 131 302 313 295 285 289 293 294 304 331 327 322 322 323 321 327 330 329 324 324 322 308 309
2 23 357 115 112 95 208 4 73 71 46 59 53 76 120 168 95 150 125 329 3 19 2 6 348 330 323 298 272 257 273 297 307 312 296 283 288 306 319 345 335 326 323 323 320 323 329 334 331 333 328 323 318 307
6 58 69 115 132 144 80 94 43 91 44 65 61 37 50 9 160 73 146 209 338 317 333 325 313 300 284 278 272 283 301 299 307 316 322 321 329 328 351 347 332 328 324 318 321 327 335 336 338 338 334 329 324 319